Weather History for KCVX - December, 2011

Change the Weather History Date:

Thursday, December 15, 2011

  Actual Average Record
Temperature  
Mean Temperature 40 °F -  
Max Temperature 48 °F 39 °F 48 °F (2011)
Min Temperature 31 °F 26 °F 5 °F (2007)
Degree Days  
Heating Degree Days 26    
Moisture  
Dew Point 37 °F    
Average Humidity 90    
Maximum Humidity 99    
Minimum Humidity 68    
Precipitation  
Precipitation 0.00 in - - ()
Sea Level Pressure  
Sea Level Pressure 29.61 in    
Wind  
Wind Speed 14 mph (WSW)    
Max Wind Speed 31 mph    
Max Gust Speed 43 mph    
Visibility 7 miles    
Events Rain , Snow    
Averages and records for this station are not official NWS values.
T = Trace of Precipitation, MM = Missing Value Source: NWS Daily Summary

Daily Weather History Graph

Daily Weather History Graph

Search for Another Location

Airport or City:

Trip Planner

Search our weather history database for the weather conditions in past years. The results will help you decide how hot, cold, wet, or windy it might be!

Date:

Astronomy

Dec. 15, 2011 Rise Set
Actual Time 8:13 AM EST 4:58 PM EST
Civil Twilight 7:39 AM EST 5:32 PM EST
Nautical Twilight 7:01 AM EST 6:10 PM EST
Astronomical Twilight 6:26 AM EST 6:46 PM EST
Moon 10:37 PM EST (12/15) 11:17 AM EST (12/15)
Length of Visible Light 9h 53m
Length of Day
8h 45m
Waning Gibbous, 75% of the Moon is Illuminated
Dec 15
Waning Gibbous
Dec 17
Last Quarter
Dec 24
New
Jan 1
First Quarter
Jan 9
Full

Hourly Weather History & Observations

Time (EST) Temp. Windchill Dew Point Humidity Pressure Visibility Wind Dir Wind Speed Gust Speed Precip Events Conditions
12:15 AM 43.7 °F 41.1 °F 43.3 °F 99% 29.57 in 3.0 mi SSE 4.6 mph - N/A   Drizzle
12:34 AM 43.9 °F 39.9 °F 43.3 °F 98% 29.55 in 4.0 mi SE 6.9 mph - N/A   Drizzle
12:54 AM 44.1 °F 40.8 °F 43.5 °F 98% 29.53 in 4.0 mi SE 5.8 mph - N/A   Light Drizzle
1:15 AM 44.4 °F 41.2 °F 43.9 °F 98% 29.54 in 7.0 mi South 5.8 mph - N/A   Overcast
1:34 AM 45.5 °F 42.5 °F 45.0 °F 98% 29.53 in 4.0 mi South 5.8 mph - N/A Rain Rain
1:54 AM 46.4 °F 44.3 °F 45.7 °F 97% 29.52 in 7.0 mi SSW 4.6 mph - N/A Rain Light Rain
2:14 AM 47.1 °F - 46.4 °F 97% 29.51 in 7.0 mi South 8.1 mph - N/A Rain Rain
2:34 AM 47.3 °F - 46.4 °F 97% 29.50 in 10.0 mi SSW 8.1 mph - N/A Rain Light Rain
2:55 AM 47.7 °F - 46.8 °F 97% 29.50 in 10.0 mi SSW 10.4 mph - N/A   Overcast
3:14 AM 48.7 °F - 47.5 °F 95% 29.49 in 10.0 mi SSW 11.5 mph - N/A   Overcast
3:55 AM 48.2 °F - 46.9 °F 95% 29.49 in 10.0 mi WSW 12.7 mph 18.4 mph N/A   Overcast
4:14 AM 47.7 °F - 46.4 °F 95% 29.49 in 10.0 mi WSW 12.7 mph 19.6 mph N/A   Overcast
4:34 AM 47.3 °F - 45.9 °F 95% 29.48 in 7.0 mi WSW 13.8 mph - N/A   Overcast
4:54 AM 46.2 °F 39.8 °F 45.3 °F 97% 29.48 in 3.0 mi WSW 15.0 mph 20.7 mph N/A   Overcast
5:14 AM 45.1 °F 39.1 °F 44.6 °F 98% 29.47 in 2.0 mi WSW 12.7 mph 17.3 mph N/A   Overcast
5:35 AM 44.8 °F 39.0 °F 44.1 °F 97% 29.47 in 5.0 mi WSW 11.5 mph - N/A   Overcast
5:55 AM 44.4 °F 38.6 °F 43.7 °F 97% 29.47 in 7.0 mi WSW 11.5 mph - N/A   Overcast
6:14 AM 44.1 °F 39.0 °F 43.3 °F 97% 29.47 in 5.0 mi WSW 9.2 mph 18.4 mph N/A   Overcast
6:35 AM 43.7 °F 39.1 °F 43.2 °F 98% 29.46 in 2.0 mi West 8.1 mph - N/A   Overcast
7:14 AM 43.2 °F 36.6 °F 42.8 °F 99% 29.46 in 7.0 mi West 12.7 mph 18.4 mph N/A   Overcast
7:35 AM 43.0 °F 36.0 °F 42.4 °F 98% 29.47 in 7.0 mi West 13.8 mph - N/A Rain Light Rain
7:54 AM 42.3 °F 34.8 °F 41.5 °F 97% 29.47 in 3.0 mi West 15.0 mph - N/A Rain Light Rain
8:35 AM 41.5 °F 34.2 °F 41.0 °F 98% 29.49 in 3.0 mi West 13.8 mph - N/A   Overcast
8:54 AM 41.0 °F 33.5 °F 40.1 °F 97% 29.50 in 3.0 mi West 13.8 mph 19.6 mph N/A   Overcast
9:14 AM 40.8 °F 32.3 °F 39.9 °F 97% 29.52 in 3.0 mi West 17.3 mph 23.0 mph N/A Rain Light Rain
9:34 AM 40.6 °F 32.0 °F 39.4 °F 95% 29.52 in 10.0 mi West 17.3 mph 24.2 mph N/A Rain Light Rain
9:54 AM 40.3 °F 31.3 °F 38.8 °F 95% 29.53 in 5.0 mi West 18.4 mph 26.5 mph N/A Rain Light Rain
10:15 AM 40.1 °F 31.6 °F 38.3 °F 93% 29.53 in 10.0 mi West 16.1 mph 24.2 mph N/A   Overcast
10:34 AM 40.1 °F 31.3 °F 37.9 °F 92% 29.53 in 10.0 mi West 17.3 mph - N/A   Overcast
10:54 AM 39.9 °F 30.8 °F 37.4 °F 91% 29.55 in 10.0 mi WSW 18.4 mph 23.0 mph N/A   Overcast
11:15 AM 40.1 °F 32.0 °F 37.6 °F 91% 29.55 in 10.0 mi West 15.0 mph - N/A   Overcast
11:34 AM 39.6 °F 30.6 °F 37.0 °F 91% 29.55 in 10.0 mi West 17.3 mph 23.0 mph N/A   Overcast
11:54 AM 39.6 °F 30.0 °F 36.5 °F 89% 29.55 in 10.0 mi West 19.6 mph 24.2 mph N/A   Overcast
12:15 PM 39.4 °F 29.5 °F 36.1 °F 88% 29.55 in 10.0 mi West 20.7 mph 26.5 mph N/A   Overcast
12:34 PM 39.0 °F 29.6 °F 36.9 °F 92% 29.56 in 2.5 mi West 18.4 mph 25.3 mph N/A   Overcast
12:55 PM 38.3 °F 28.4 °F 36.5 °F 93% 29.55 in 7.0 mi West 19.6 mph - N/A   Light Drizzle
1:34 PM 38.8 °F 28.8 °F 36.9 °F 93% 29.55 in 4.0 mi West 20.7 mph 26.5 mph N/A   Overcast
1:55 PM 39.2 °F 30.2 °F 36.5 °F 90% 29.55 in 7.0 mi West 17.3 mph 24.2 mph N/A Rain Light Rain
2:34 PM 38.5 °F 28.3 °F 35.8 °F 90% 29.56 in 4.0 mi West 20.7 mph 32.2 mph N/A Rain Light Rain
2:54 PM 38.7 °F 27.8 °F 35.8 °F 89% 29.57 in 10.0 mi West 24.2 mph 28.8 mph N/A   Light Drizzle
3:14 PM 38.7 °F 28.0 °F 35.1 °F 87% 29.58 in 7.0 mi West 23.0 mph 29.9 mph N/A Rain Light Rain
3:35 PM 38.5 °F 28.9 °F 35.6 °F 89% 29.59 in 5.0 mi West 18.4 mph 25.3 mph N/A Rain Light Rain
3:54 PM 38.1 °F 28.4 °F 35.4 °F 90% 29.60 in 7.0 mi West 18.4 mph 28.8 mph N/A Rain Light Rain
4:14 PM 37.8 °F 29.8 °F 35.1 °F 90% 29.62 in 7.0 mi West 12.7 mph 23.0 mph N/A Rain Light Rain
4:35 PM 38.3 °F 27.8 °F 35.1 °F 88% 29.62 in 10.0 mi West 21.9 mph 27.6 mph N/A Rain Light Rain
4:54 PM 37.6 °F 28.1 °F 35.2 °F 91% 29.63 in 5.0 mi WSW 17.3 mph 28.8 mph N/A Rain Light Rain
5:14 PM 36.0 °F 24.4 °F 34.2 °F 93% 29.64 in 4.0 mi WSW 23.0 mph 32.2 mph N/A   Overcast
5:34 PM 34.5 °F 22.8 °F 33.3 °F 95% 29.65 in 5.0 mi West 21.9 mph 27.6 mph N/A Snow Light Snow
5:54 PM 33.3 °F 20.3 °F 32.0 °F 95% 29.67 in 2.5 mi WNW 25.3 mph 34.5 mph N/A Snow Light Snow
6:14 PM 32.4 °F 18.9 °F 30.9 °F 94% 29.69 in 2.0 mi WNW 26.5 mph 35.7 mph N/A Snow Light Snow
6:35 PM 32.2 °F 18.4 °F 30.9 °F 95% 29.71 in 2.5 mi WNW 27.6 mph 38.0 mph N/A Snow Light Snow
6:54 PM 32.4 °F 17.9 °F 28.0 °F 84% 29.73 in 10.0 mi West 31.1 mph 40.3 mph N/A Snow Light Snow
7:15 PM 32.0 °F 18.6 °F 26.1 °F 79% 29.76 in 10.0 mi West 25.3 mph 36.8 mph N/A Snow Light Snow
7:34 PM 32.0 °F 18.9 °F 24.8 °F 75% 29.77 in 10.0 mi West 24.2 mph 36.8 mph N/A   Overcast
7:54 PM 32.0 °F 17.9 °F 25.3 °F 76% 29.78 in 10.0 mi West 28.8 mph 36.8 mph N/A Snow Light Snow
8:15 PM 32.0 °F 18.4 °F 25.3 °F 76% 29.80 in 10.0 mi West 26.5 mph 34.5 mph N/A Snow Light Snow
8:34 PM 32.2 °F 17.6 °F 25.0 °F 75% 29.80 in 7.0 mi West 31.1 mph 39.1 mph N/A Snow Light Snow
8:54 PM 32.0 °F 18.4 °F 24.8 °F 75% 29.81 in 10.0 mi West 26.5 mph 39.1 mph N/A Snow Light Snow
9:15 PM 32.0 °F 18.1 °F 24.6 °F 74% 29.82 in 7.0 mi West 27.6 mph 36.8 mph N/A Snow Light Snow
9:34 PM 32.2 °F 18.4 °F 25.7 °F 77% 29.84 in 7.0 mi West 27.6 mph 39.1 mph N/A Snow Light Snow
9:54 PM 32.4 °F 18.1 °F 25.3 °F 75% 29.85 in 7.0 mi West 29.9 mph 42.6 mph N/A Snow Light Snow
10:34 PM 32.7 °F 19.1 °F 25.0 °F 73% 29.88 in 10.0 mi West 27.6 mph 36.8 mph N/A   Overcast
10:54 PM 32.5 °F 19.6 °F 25.3 °F 75% 29.89 in 10.0 mi WNW 24.2 mph 32.2 mph N/A   Overcast
11:14 PM 31.5 °F 17.9 °F 27.3 °F 85% 29.91 in 3.0 mi WNW 25.3 mph 38.0 mph N/A Snow Light Snow
11:34 PM 31.8 °F 19.0 °F 22.3 °F 68% 29.93 in 10.0 mi WNW 23.0 mph 40.3 mph N/A   Overcast
11:55 PM 31.1 °F 18.6 °F 22.8 °F 71% 29.95 in 10.0 mi WNW 20.7 mph 34.5 mph N/A   Overcast